Content
SEND FEEDBACK

Daily
Averages
Monthly
Summary
United States of America

SUNDERLAND, MASSACHUSETTS


Home > North America > United States > Massachusetts
Elevation: 240 feet     Latitude: 42 27N     Longitude: 072 33W

WEATHER
 
SELECT A DAY
Number of Records: 212,414;   Date Range: 7/1/96 - 7/26/14
 
SHARE

PRINT THIS DATA

[ ← Previous Day ]
WEATHER ALMANAC - APRIL 25, 2014
[ Next Day → ]
[ °C ]   °F
Weather ElementAverageHighLow
Temperature50.3 °F64 °F (3:52 pm)28.9 °F (5:52 am)
Dewpoint20.5 °F27 °F (8:52 pm)10 °F (1:52 pm)
Humidity36.2 %82 % (5:52 am)14 % (1:52 pm)
Barometer29.92 in30.03 in (6:52 am)29.80 in (7:52 pm)
Wind Speed5.5 mph12.7 mph (4:52 pm)
Weather ElementAverage
Visibility10 mi
Wind DirectionSE (130.9 °)

Weather ElementTotal
Precipitation---
Heating Degree Days18.6 (Base 65)
Averaged from 23 records on April 25, 2014
WEATHER CONDITIONS BREAKOUT
WIND DIRECTION BREAKOUT
WEATHER BY HOUR - APRIL 25, 2014
[ °C ]   °F
Local TimeTemperatureDewpointHumidityBarometerVisibilityWind DirectionWind SpeedGust SpeedPrecipitationEventsConditions
1:52 AM42.1 °F19.9 °F41 %29.95 in10.0 miCalmClear
2:52 AM37.9 °F21.0 °F51 %29.95 in10.0 miNorth (350°)4.6 mphClear
3:52 AM36.0 °F23.0 °F59 %29.96 in10.0 miCalmClear
4:52 AM30.9 °F23.0 °F72 %29.97 in10.0 miCalmClear
5:52 AM28.9 °F24.1 °F82 %30.01 in10.0 miCalmClear
6:52 AM32.0 °F26.1 °F79 %30.03 in10.0 miCalmClear
7:52 AM41.0 °F23.0 °F49 %30.03 in10.0 miCalmClear
8:52 AM46.0 °F21.0 °F37 %30.03 in10.0 miWest (270°)3.5 mphClear
9:52 AM50.0 °F19.9 °F31 %30.03 in10.0 miWNW (300°)9.2 mphClear
10:52 AM54.0 °F19.0 °F25 %30.00 in10.0 miNNW (330°)8.1 mphClear
11:52 AM55.0 °F14.0 °F20 %29.97 in10.0 miNorth (10°)6.9 mphClear
12:52 PM57.9 °F15.1 °F19 %29.95 in10.0 miVariable4.6 mphClear
1:52 PM60.1 °F10.0 °F14 %29.92 in10.0 miVariable6.9 mphClear
2:52 PM62.1 °F12.0 °F14 %29.89 in10.0 miSSW (200°)9.2 mphClear
3:52 PM64.0 °F14.0 °F14 %29.86 in10.0 miSouth (170°)9.2 mphClear
4:52 PM63.0 °F16.0 °F16 %29.84 in10.0 miSouth (190°)12.7 mphClear
5:52 PM63.0 °F17.1 °F17 %29.82 in10.0 miSouth (190°)8.1 mphClear
6:52 PM61.0 °F19.9 °F21 %29.81 in10.0 miSSE (160°)4.6 mphClear
7:52 PM57.9 °F26.1 °F30 %29.80 in10.0 miSSE (160°)4.6 mphPartly Cloudy
8:52 PM57.0 °F27.0 °F32 %29.82 in10.0 miSouth (170°)8.1 mphPartly Cloudy
9:52 PM54.0 °F26.1 °F34 %29.84 in10.0 miSouth (190°)11.5 mphOvercast
10:52 PM52.0 °F27.0 °F38 %29.83 in10.0 miSSE (160°)6.9 mphMostly Cloudy
11:52 PM51.1 °F26.1 °F38 %29.81 in10.0 miSSE (160°)8.1 mphMostly Cloudy
Hourly data recorded from KORE, located miles away from Sunderland, Massachusetts







STORIES FROM OUR PARTNERS